sat.trackr.live / text

‹ back to catalog

HYDRA-3

NORAD 69022 · 2026-100AU

PAYLOAD ACTIVE UNKNOWN

§ Identity

Operator
Country
SPN
Launch date
2026-05-03
Launch site
AFWTR
Launch vehicle
Mass (kg)
RCS (m²)

External: N2YO · Heavens-Above · Gunter

§ Orbital elements

Epoch: 2026-05-24T23:56:55.948992Z

Period
94.76 min
Inclination
97.4050°
Eccentricity
0.0006918
Mean motion
15.19629244 rev/d
Perigee alt
502.2 km
Apogee alt
511.7 km
Semi-major
6,885.1 km
B*
2.4091e-4
RAAN
43.2080°
Arg perigee
77.7817°
Mean anomaly
282.4193°
Rev number
328

§ Raw data

HYDRA-31 69022U 26100AU  26144.99786978  .00005069  00000+0  24091-3 0  99962 69022  97.4050  43.2080 0006918  77.7817 282.4193 15.19629244  3289

JSON: /api/v1/satellites/69022 · /tle

For live sub-satellite position, see the globe view (requires WebGL).

§ Visibility from observer

Set your observer location to see the next 7 days of passes ≥ 10°. The values pass through the URL so the page stays shareable.

No JS? Fill the form by hand. The geolocation button needs JavaScript.